Voltar ao catálogo

DMSP 5D-2 F13 DEB

AtivoSSO
NORAD 40443·DEBRIS·🇺🇸 United States

Lançado Mar 24, 1995 de Vandenberg Space Force Base

Loading…

Próximas Passagens (próximas 24 horas)

TLE

AtualizadoSource: Space-Track

Época: Sep 12, 2026, 23:40 UTC

1 40443U 95015AV  26255.98641624  .00000085  00000-0  56152-4 0  9991
2 40443  98.6134 268.0587 0040848  86.6197 273.9652 14.23000442598517

Acompanhe DMSP 5D-2 F13 DEB em tempo real com AllMySat

Download on the App Store